When you browse on this site, cookies collect data to enhance your experience and personalize the content and advertising you see.
Visit our Privacy Policy to learn more. By continuing to use the site, you agree to this use of cookies and data.
  • In Österreich
  • Länderverzeichnis
  • Für 7 Tage
  • Wassertemperatur
  • Wetterkarte
  • News
  • Widgets
  • user-avatar
    Anmelden

    Stündliche Wetter Zorya

    Heute, 19 August, Montag

    Zeit Temperatur Niederschläge Wind Luftdruck Luftfeuchtigkeit
    00:00 +18°C° 0 mm 3 m/S 742 mmHg 82%
    01:00 +17°C° 0 mm 2 m/S 742 mmHg 83%
    02:00 +17°C° 0 mm 2 m/S 742 mmHg 84%
    03:00 +17°C° 0 mm 2 m/S 742 mmHg 83%
    04:00 +17°C° 0 mm 3 m/S 742 mmHg 82%
    05:00 +16°C° 0 mm 3 m/S 742 mmHg 81%
    06:00 +18°C° 0 mm 3 m/S 742 mmHg 78%
    07:00 +19°C° 0 mm 3 m/S 743 mmHg 75%
    08:00 +20°C° 0 mm 3 m/S 743 mmHg 71%
    09:00 +22°C° 0 mm 3 m/S 743 mmHg 67%
    10:00 +25°C° 0 mm 3 m/S 743 mmHg 63%
    11:00 +27°C° 0 mm 3 m/S 743 mmHg 58%
    12:00 +28°C° 0 mm 3 m/S 744 mmHg 56%
    13:00 +29°C° 0 mm 2 m/S 744 mmHg 55%
    14:00 +30°C° 0 mm 2 m/S 744 mmHg 53%
    15:00 +30°C° 0 mm 2 m/S 744 mmHg 54%
    16:00 +30°C° 0 mm 2 m/S 743 mmHg 54%
    17:00 +30°C° 0 mm 1 m/S 743 mmHg 55%
    18:00 +28°C° 0 mm 1 m/S 744 mmHg 61%
    19:00 +26°C° 0 mm 2 m/S 744 mmHg 66%
    20:00 +24°C° 0 mm 2 m/S 744 mmHg 72%
    21:00 +23°C° 0 mm 2 m/S 744 mmHg 74%
    22:00 +23°C° 0 mm 2 m/S 744 mmHg 76%
    23:00 +21°C° 0 mm 3 m/S 744 mmHg 78%

    Morgen, 20 August, Dienstag

    Zeit Temperatur Niederschläge Wind Luftdruck Luftfeuchtigkeit
    00:00 +21°C° 0 mm 3 m/S 744 mmHg 78%
    01:00 +20°C° 0 mm 2 m/S 744 mmHg 78%
    02:00 +20°C° 0 mm 2 m/S 744 mmHg 77%
    03:00 +20°C° 0 mm 2 m/S 744 mmHg 78%
    04:00 +19°C° 0 mm 2 m/S 744 mmHg 78%
    05:00 +19°C° 0 mm 2 m/S 745 mmHg 78%
    06:00 +20°C° 0 mm 2 m/S 745 mmHg 75%
    07:00 +21°C° 0 mm 2 m/S 745 mmHg 73%
    08:00 +23°C° 0 mm 1 m/S 746 mmHg 71%
    09:00 +25°C° 0 mm 1 m/S 746 mmHg 67%
    10:00 +26°C° 0 mm 1 m/S 746 mmHg 63%
    11:00 +28°C° 0 mm 1 m/S 746 mmHg 60%
    12:00 +29°C° 0.1 mm 1 m/S 746 mmHg 58%
    13:00 +30°C° 0.1 mm 1 m/S 746 mmHg 56%
    14:00 +30°C° 0.1 mm 1 m/S 746 mmHg 54%
    15:00 +30°C° 0.4 mm 1 m/S 746 mmHg 58%
    16:00 +29°C° 0.4 mm 2 m/S 746 mmHg 61%
    17:00 +29°C° 0.4 mm 2 m/S 746 mmHg 65%
    18:00 +27°C° 0.1 mm 2 m/S 746 mmHg 73%
    19:00 +25°C° 0.1 mm 3 m/S 746 mmHg 81%
    20:00 +22°C° 0.1 mm 3 m/S 746 mmHg 89%
    21:00 +23°C° 0 mm 2 m/S 746 mmHg 91%
    22:00 +21°C° 0 mm 2 m/S 746 mmHg 93%
    23:00 +21°C° 0 mm 2 m/S 746 mmHg 95%

    übermorgen, 21 August, Mittwoch

    Zeit Temperatur Niederschläge Wind Luftdruck Luftfeuchtigkeit
    00:00 +20°C° 0 mm 2 m/S 746 mmHg 93%
    01:00 +20°C° 0 mm 2 m/S 746 mmHg 91%
    02:00 +20°C° 0 mm 2 m/S 746 mmHg 90%
    03:00 +20°C° 0 mm 2 m/S 746 mmHg 87%
    04:00 +19°C° 0 mm 2 m/S 746 mmHg 85%
    05:00 +19°C° 0 mm 2 m/S 746 mmHg 82%
    06:00 +20°C° 0 mm 2 m/S 746 mmHg 78%
    07:00 +21°C° 0 mm 2 m/S 746 mmHg 73%
    08:00 +24°C° 0 mm 2 m/S 746 mmHg 69%
    09:00 +25°C° 0 mm 3 m/S 746 mmHg 63%
    10:00 +27°C° 0 mm 3 m/S 746 mmHg 57%
    11:00 +29°C° 0 mm 3 m/S 746 mmHg 51%
    12:00 +30°C° 0 mm 3 m/S 746 mmHg 49%
    13:00 +30°C° 0 mm 3 m/S 745 mmHg 47%
    14:00 +31°C° 0 mm 3 m/S 745 mmHg 44%
    15:00 +31°C° 0 mm 2 m/S 745 mmHg 47%
    16:00 +31°C° 0 mm 2 m/S 745 mmHg 49%
    17:00 +31°C° 0 mm 2 m/S 745 mmHg 51%
    18:00 +29°C° 0 mm 2 m/S 745 mmHg 57%
    19:00 +26°C° 0 mm 2 m/S 745 mmHg 63%
    20:00 +24°C° 0 mm 2 m/S 745 mmHg 69%
    21:00 +24°C° 0 mm 1 m/S 745 mmHg 72%
    22:00 +23°C° 0 mm 1 m/S 745 mmHg 76%
    23:00 +22°C° 0 mm 1 m/S 746 mmHg 80%

    22 August, Donnerstag

    Zeit Temperatur Niederschläge Wind Luftdruck Luftfeuchtigkeit
    00:00 +22°C° 0 mm 1 m/S 746 mmHg 82%
    01:00 +22°C° 0 mm 1 m/S 746 mmHg 84%
    02:00 +22°C° 0 mm 1 m/S 746 mmHg 86%
    03:00 +20°C° 0 mm 2 m/S 746 mmHg 89%
    04:00 +20°C° 0 mm 2 m/S 746 mmHg 93%
    05:00 +19°C° 0 mm 2 m/S 746 mmHg 96%
    06:00 +19°C° 0 mm 3 m/S 746 mmHg 95%
    07:00 +20°C° 0 mm 3 m/S 746 mmHg 95%
    08:00 +20°C° 0 mm 3 m/S 746 mmHg 94%
    09:00 +20°C° 0 mm 3 m/S 747 mmHg 91%
    10:00 +21°C° 0 mm 3 m/S 747 mmHg 89%
    11:00 +21°C° 0 mm 2 m/S 747 mmHg 86%
    12:00 +24°C° 0 mm 2 m/S 747 mmHg 82%
    13:00 +25°C° 0 mm 2 m/S 747 mmHg 78%
    14:00 +26°C° 0 mm 2 m/S 747 mmHg 73%
    15:00 +26°C° 0 mm 3 m/S 746 mmHg 73%
    16:00 +26°C° 0 mm 3 m/S 746 mmHg 73%
    17:00 +26°C° 0 mm 3 m/S 746 mmHg 73%
    18:00 +24°C° 0 mm 3 m/S 746 mmHg 79%
    19:00 +22°C° 0 mm 3 m/S 747 mmHg 86%
    20:00 +20°C° 0 mm 3 m/S 747 mmHg 92%
    21:00 +20°C° 0 mm 2 m/S 747 mmHg 92%
    22:00 +19°C° 0 mm 2 m/S 747 mmHg 93%
    23:00 +19°C° 0 mm 2 m/S 747 mmHg 94%

    23 August, Freitag

    Zeit Temperatur Niederschläge Wind Luftdruck Luftfeuchtigkeit
    00:00 +19°C° 0 mm 2 m/S 747 mmHg 94%
    01:00 +19°C° 0 mm 2 m/S 747 mmHg 94%
    02:00 +18°C° 0 mm 2 m/S 747 mmHg 95%
    03:00 +18°C° 0 mm 2 m/S 747 mmHg 95%
    04:00 +18°C° 0 mm 2 m/S 747 mmHg 94%
    05:00 +18°C° 0 mm 2 m/S 747 mmHg 94%
    06:00 +19°C° 0.1 mm 2 m/S 747 mmHg 92%
    07:00 +19°C° 0.1 mm 3 m/S 748 mmHg 90%
    08:00 +19°C° 0.1 mm 3 m/S 748 mmHg 88%
    09:00 +20°C° 0 mm 3 m/S 748 mmHg 83%
    10:00 +21°C° 0 mm 3 m/S 748 mmHg 79%
    11:00 +22°C° 0 mm 3 m/S 749 mmHg 74%
    12:00 +23°C° 0 mm 4 m/S 749 mmHg 70%
    13:00 +25°C° 0 mm 4 m/S 749 mmHg 66%
    14:00 +26°C° 0 mm 4 m/S 749 mmHg 62%
    15:00 +25°C° 0 mm 4 m/S 749 mmHg 63%
    16:00 +25°C° 0 mm 4 m/S 749 mmHg 63%
    17:00 +25°C° 0 mm 4 m/S 748 mmHg 64%
    18:00 +22°C° 0 mm 4 m/S 748 mmHg 69%
    19:00 +21°C° 0 mm 4 m/S 748 mmHg 74%
    20:00 +19°C° 0 mm 3 m/S 748 mmHg 79%
    21:00 +19°C° 0 mm 3 m/S 749 mmHg 81%
    22:00 +18°C° 0 mm 3 m/S 749 mmHg 83%
    23:00 +17°C° 0 mm 3 m/S 749 mmHg 86%

    24 August, Samstag

    Zeit Temperatur Niederschläge Wind Luftdruck Luftfeuchtigkeit
    00:00 +17°C° 0 mm 3 m/S 749 mmHg 88%
    01:00 +16°C° 0 mm 3 m/S 749 mmHg 90%
    02:00 +16°C° 0 mm 3 m/S 749 mmHg 93%
    03:00 +14°C° 0 mm 3 m/S 749 mmHg 94%
    04:00 +14°C° 0 mm 3 m/S 749 mmHg 94%
    05:00 +14°C° 0 mm 3 m/S 750 mmHg 95%
    06:00 +16°C° 0 mm 3 m/S 750 mmHg 89%
    07:00 +17°C° 0 mm 3 m/S 750 mmHg 83%
    08:00 +18°C° 0 mm 4 m/S 750 mmHg 77%
    09:00 +20°C° 0 mm 4 m/S 750 mmHg 71%
    10:00 +21°C° 0 mm 4 m/S 750 mmHg 64%
    11:00 +23°C° 0 mm 4 m/S 750 mmHg 57%
    12:00 +23°C° 0 mm 4 m/S 750 mmHg 55%
    13:00 +25°C° 0 mm 4 m/S 750 mmHg 53%
    14:00 +25°C° 0 mm 4 m/S 750 mmHg 51%
    15:00 +25°C° 0 mm 4 m/S 749 mmHg 54%
    16:00 +25°C° 0 mm 4 m/S 749 mmHg 56%
    17:00 +23°C° 0 mm 4 m/S 749 mmHg 59%
    18:00 +22°C° 0 mm 4 m/S 749 mmHg 63%
    19:00 +20°C° 0 mm 4 m/S 749 mmHg 67%
    20:00 +18°C° 0 mm 4 m/S 749 mmHg 71%
    21:00 +18°C° 0 mm 4 m/S 749 mmHg 70%
    22:00 +17°C° 0 mm 4 m/S 749 mmHg 69%
    23:00 +17°C° 0 mm 4 m/S 749 mmHg 67%
    Mehr zeigen